Wetterdaten: Woche 15.02.16 - 21.02.16 (KW7)
Datum Zeit Temperatur Luftfeuchte Luftdruck Niederschlag Windrichtung Sonnenschein Solar Wind
15.02.2016 00:00 2,3 C 98 % 998,5 hPa 0,0 l/m SW 0,00 h 0 W/m 10,0 km/h (2 Bft)
15.02.2016 01:00 1,9 C 98 % 999,1 hPa 0,0 l/m W-SW 0,00 h 0 W/m 10,5 km/h (2 Bft)
15.02.2016 02:00 1,3 C 97 % 999,7 hPa 0,0 l/m W-SW 0,00 h 0 W/m 2,0 km/h (1 Bft)
15.02.2016 03:00 0,5 C 97 % 1000,3 hPa 0,0 l/m N 0,00 h 0 W/m 0,0 km/h (0 Bft)
15.02.2016 04:00 0,1 C 97 % 1001,3 hPa 0,0 l/m N 0,00 h 0 W/m 0,0 km/h (0 Bft)
15.02.2016 05:00 -0,3 C 97 % 1002,3 hPa 0,0 l/m W-SW 0,00 h 0 W/m 0,7 km/h (0 Bft)
15.02.2016 06:00 -0,5 C 98 % 1002,8 hPa 0,0 l/m N 0,00 h 0 W/m 0,0 km/h (0 Bft)
15.02.2016 07:00 -0,1 C 98 % 1004,0 hPa 0,0 l/m N 0,00 h 13 W/m 0,0 km/h (0 Bft)
15.02.2016 08:00 0,9 C 98 % 1004,7 hPa 0,0 l/m N 0,17 h 67 W/m 0,0 km/h (0 Bft)
15.02.2016 09:00 2,8 C 98 % 1005,7 hPa 0,0 l/m W 0,25 h 139 W/m 5,9 km/h (2 Bft)
15.02.2016 10:00 3,6 C 95 % 1006,9 hPa 0,0 l/m W 0,00 h 107 W/m 3,2 km/h (1 Bft)
15.02.2016 11:00 3,9 C 93 % 1008,3 hPa 0,0 l/m N 0,00 h 77 W/m 7,0 km/h (2 Bft)
15.02.2016 12:00 3,9 C 92 % 1009,2 hPa 0,0 l/m N-NO 0,00 h 95 W/m 13,4 km/h (3 Bft)
15.02.2016 13:00 3,6 C 92 % 1010,3 hPa 0,0 l/m N-NO 0,00 h 63 W/m 13,3 km/h (3 Bft)
15.02.2016 14:00 2,8 C 94 % 1011,4 hPa 0,6 l/m N 0,00 h 36 W/m 14,5 km/h (3 Bft)
15.02.2016 15:00 2,6 C 96 % 1012,4 hPa 0,0 l/m N 0,00 h 68 W/m 14,0 km/h (3 Bft)
15.02.2016 16:00 2,6 C 95 % 1013,7 hPa 0,0 l/m N-NO 0,00 h 15 W/m 12,5 km/h (3 Bft)
15.02.2016 17:00 2,4 C 94 % 1015,1 hPa 0,0 l/m N 0,00 h 6 W/m 12,2 km/h (2 Bft)
15.02.2016 18:00 2,2 C 94 % 1016,5 hPa 0,0 l/m N 0,00 h 0 W/m 12,2 km/h (2 Bft)
15.02.2016 19:00 2,1 C 93 % 1017,7 hPa 0,0 l/m N 0,00 h 0 W/m 12,9 km/h (3 Bft)
15.02.2016 20:00 2,0 C 93 % 1018,9 hPa 0,0 l/m N 0,00 h 0 W/m 15,7 km/h (3 Bft)
15.02.2016 21:00 1,9 C 94 % 1019,7 hPa 0,0 l/m N-NO 0,00 h 0 W/m 12,3 km/h (3 Bft)
15.02.2016 22:00 1,8 C 94 % 1020,5 hPa 0,0 l/m N-NO 0,00 h 0 W/m 15,3 km/h (3 Bft)
15.02.2016 23:00 1,7 C 94 % 1021,6 hPa 0,0 l/m N-NO 0,00 h 0 W/m 14,8 km/h (3 Bft)
16.02.2016 00:00 1,7 C 93 % 1022,7 hPa 0,0 l/m N-NO 0,00 h 0 W/m 14,2 km/h (3 Bft)
16.02.2016 01:00 1,6 C 93 % 1023,9 hPa 0,0 l/m N-NO 0,00 h 0 W/m 16,2 km/h (3 Bft)
16.02.2016 02:00 1,4 C 92 % 1025,1 hPa 0,0 l/m N-NO 0,00 h 0 W/m 14,8 km/h (3 Bft)
16.02.2016 03:00 1,2 C 91 % 1025,5 hPa 0,0 l/m NO 0,00 h 0 W/m 12,1 km/h (2 Bft)
16.02.2016 04:00 0,6 C 91 % 1025,7 hPa 0,0 l/m N-NO 0,00 h 0 W/m 9,1 km/h (2 Bft)
16.02.2016 05:00 0,1 C 93 % 1026,5 hPa 0,0 l/m N-NO 0,00 h 0 W/m 7,6 km/h (2 Bft)
16.02.2016 06:00 0,2 C 93 % 1027,4 hPa 0,0 l/m NO 0,00 h 0 W/m 14,5 km/h (3 Bft)
16.02.2016 07:00 0,2 C 93 % 1028,0 hPa 0,0 l/m NO 0,00 h 5 W/m 17,7 km/h (3 Bft)
16.02.2016 08:00 0,3 C 91 % 1029,0 hPa 0,0 l/m O-NO 0,00 h 10 W/m 17,7 km/h (3 Bft)
16.02.2016 09:00 0,2 C 89 % 1029,5 hPa 0,0 l/m O-NO 0,00 h 29 W/m 18,5 km/h (3 Bft)
16.02.2016 10:00 0,6 C 88 % 1029,8 hPa 0,0 l/m O-NO 0,00 h 66 W/m 12,8 km/h (3 Bft)
16.02.2016 11:00 1,0 C 87 % 1029,9 hPa 0,0 l/m NO 0,00 h 61 W/m 17,0 km/h (3 Bft)
16.02.2016 12:00 1,3 C 86 % 1029,7 hPa 0,0 l/m O-NO 0,00 h 82 W/m 20,8 km/h (4 Bft)
16.02.2016 13:00 1,6 C 84 % 1029,6 hPa 0,0 l/m O-NO 0,00 h 73 W/m 20,8 km/h (4 Bft)
16.02.2016 14:00 1,6 C 84 % 1029,5 hPa 0,0 l/m O-NO 0,00 h 52 W/m 20,0 km/h (4 Bft)
16.02.2016 15:00 1,7 C 86 % 1029,3 hPa 0,0 l/m O-NO 0,00 h 41 W/m 19,4 km/h (3 Bft)
16.02.2016 16:00 1,7 C 88 % 1029,0 hPa 0,0 l/m O-NO 0,00 h 17 W/m 16,5 km/h (3 Bft)
16.02.2016 17:00 1,7 C 89 % 1029,2 hPa 0,0 l/m O-NO 0,00 h 8 W/m 14,9 km/h (3 Bft)
16.02.2016 18:00 1,8 C 90 % 1029,2 hPa 0,0 l/m O-NO 0,00 h 0 W/m 18,0 km/h (3 Bft)
16.02.2016 19:00 1,5 C 94 % 1028,9 hPa 0,0 l/m O-NO 0,00 h 0 W/m 15,0 km/h (3 Bft)
16.02.2016 20:00 1,2 C 94 % 1028,2 hPa 0,0 l/m NO 0,00 h 0 W/m 17,0 km/h (3 Bft)
16.02.2016 21:00 0,9 C 92 % 1027,0 hPa 0,0 l/m N-NO 0,00 h 0 W/m 20,1 km/h (4 Bft)
16.02.2016 22:00 0,9 C 92 % 1026,5 hPa 0,0 l/m NO 0,00 h 0 W/m 15,0 km/h (3 Bft)
16.02.2016 23:00 1,1 C 92 % 1025,5 hPa 0,0 l/m NO 0,00 h 0 W/m 13,6 km/h (3 Bft)
17.02.2016 00:00 1,0 C 91 % 1024,7 hPa 0,0 l/m NO 0,00 h 0 W/m 17,0 km/h (3 Bft)
17.02.2016 01:00 0,9 C 92 % 1023,9 hPa 0,0 l/m O-NO 0,00 h 0 W/m 15,0 km/h (3 Bft)
17.02.2016 02:00 0,7 C 92 % 1023,1 hPa 0,0 l/m O-NO 0,00 h 0 W/m 13,2 km/h (3 Bft)
17.02.2016 03:00 0,6 C 92 % 1022,2 hPa 0,0 l/m NO 0,00 h 0 W/m 12,1 km/h (2 Bft)
17.02.2016 04:00 0,4 C 93 % 1021,5 hPa 0,0 l/m O-NO 0,00 h 0 W/m 11,8 km/h (2 Bft)
17.02.2016 05:00 0,2 C 94 % 1020,9 hPa 0,0 l/m O-NO 0,00 h 0 W/m 10,6 km/h (2 Bft)
17.02.2016 06:00 -0,1 C 95 % 1019,9 hPa 0,0 l/m NO 0,00 h 0 W/m 12,0 km/h (2 Bft)
17.02.2016 07:00 -0,4 C 96 % 1019,4 hPa 0,0 l/m NO 0,00 h 0 W/m 12,6 km/h (3 Bft)
17.02.2016 08:00 -0,4 C 96 % 1019,1 hPa 0,0 l/m NO 0,00 h 5 W/m 12,2 km/h (2 Bft)
17.02.2016 09:00 -0,3 C 96 % 1018,6 hPa 0,0 l/m NO 0,00 h 17 W/m 8,4 km/h (2 Bft)
17.02.2016 10:00 -0,3 C 96 % 1017,9 hPa 0,0 l/m O-NO 0,00 h 36 W/m 8,8 km/h (2 Bft)
17.02.2016 11:00 -0,3 C 96 % 1017,4 hPa 0,0 l/m O-NO 0,00 h 36 W/m 2,3 km/h (1 Bft)
17.02.2016 12:00 0,0 C 96 % 1016,6 hPa 0,0 l/m N 0,00 h 57 W/m 0,0 km/h (0 Bft)
17.02.2016 13:00 0,3 C 96 % 1016,0 hPa 0,0 l/m N 0,00 h 63 W/m 0,0 km/h (0 Bft)
17.02.2016 14:00 0,5 C 95 % 1015,7 hPa 0,0 l/m O-NO 0,00 h 56 W/m 1,1 km/h (0 Bft)
17.02.2016 15:00 0,7 C 94 % 1015,6 hPa 0,0 l/m O-NO 0,00 h 32 W/m 0,7 km/h (0 Bft)
17.02.2016 16:00 0,7 C 94 % 1015,5 hPa 0,0 l/m N 0,00 h 29 W/m 0,0 km/h (0 Bft)
17.02.2016 17:00 0,8 C 93 % 1015,4 hPa 0,0 l/m N 0,08 h 12 W/m 0,0 km/h (0 Bft)
17.02.2016 18:00 0,8 C 94 % 1015,6 hPa 0,0 l/m N 0,00 h 0 W/m 0,0 km/h (0 Bft)
17.02.2016 19:00 0,8 C 94 % 1015,7 hPa 0,0 l/m N 0,00 h 0 W/m 0,0 km/h (0 Bft)
17.02.2016 20:00 0,2 C 94 % 1015,5 hPa 0,0 l/m N 0,00 h 0 W/m 0,0 km/h (0 Bft)
17.02.2016 21:00 -0,5 C 94 % 1015,8 hPa 0,0 l/m N 0,00 h 0 W/m 0,0 km/h (0 Bft)
17.02.2016 22:00 -0,5 C 95 % 1015,9 hPa 0,0 l/m N 0,00 h 0 W/m 0,0 km/h (0 Bft)
17.02.2016 23:00 -0,3 C 96 % 1016,0 hPa 0,0 l/m N 0,00 h 0 W/m 0,0 km/h (0 Bft)
18.02.2016 00:00 -0,1 C 96 % 1015,9 hPa 0,0 l/m N 0,00 h 0 W/m 0,0 km/h (0 Bft)
18.02.2016 01:00 -0,0 C 96 % 1016,2 hPa 0,0 l/m N 0,00 h 0 W/m 0,0 km/h (0 Bft)
18.02.2016 02:00 0,1 C 97 % 1016,5 hPa 0,0 l/m N 0,00 h 0 W/m 0,0 km/h (0 Bft)
18.02.2016 03:00 0,1 C 97 % 1016,4 hPa 0,0 l/m N 0,00 h 0 W/m 0,0 km/h (0 Bft)
18.02.2016 04:00 0,2 C 97 % 1016,1 hPa 0,0 l/m N 0,00 h 0 W/m 0,0 km/h (0 Bft)
18.02.2016 05:00 0,2 C 96 % 1015,8 hPa 0,0 l/m N 0,00 h 0 W/m 0,0 km/h (0 Bft)
18.02.2016 06:00 0,1 C 96 % 1015,7 hPa 0,0 l/m N 0,00 h 0 W/m 0,0 km/h (0 Bft)
18.02.2016 07:00 -0,1 C 96 % 1015,9 hPa 0,0 l/m N 0,00 h 13 W/m 0,0 km/h (0 Bft)
18.02.2016 08:00 0,1 C 97 % 1016,4 hPa 0,0 l/m N 0,00 h 38 W/m 0,0 km/h (0 Bft)
18.02.2016 09:00 0,9 C 96 % 1016,7 hPa 0,0 l/m SO 0,58 h 178 W/m 4,1 km/h (1 Bft)
18.02.2016 10:00 2,0 C 93 % 1016,5 hPa 0,0 l/m S-SO 1,00 h 364 W/m 4,9 km/h (1 Bft)
18.02.2016 11:00 4,2 C 84 % 1016,3 hPa 0,0 l/m S-SW 1,00 h 466 W/m 6,4 km/h (2 Bft)
18.02.2016 12:00 5,6 C 74 % 1015,8 hPa 0,0 l/m SW 0,83 h 413 W/m 7,4 km/h (2 Bft)
18.02.2016 13:00 6,2 C 71 % 1015,0 hPa 0,0 l/m S 0,92 h 439 W/m 6,0 km/h (2 Bft)
18.02.2016 14:00 6,5 C 69 % 1014,5 hPa 0,0 l/m W-NW 0,42 h 215 W/m 5,1 km/h (1 Bft)
18.02.2016 15:00 6,3 C 68 % 1014,6 hPa 0,0 l/m NW 0,00 h 84 W/m 3,9 km/h (1 Bft)
18.02.2016 16:00 6,0 C 69 % 1014,7 hPa 0,0 l/m NW 0,00 h 36 W/m 1,5 km/h (1 Bft)
18.02.2016 17:00 5,5 C 72 % 1014,9 hPa 0,0 l/m N 0,00 h 11 W/m 0,0 km/h (0 Bft)
18.02.2016 18:00 4,7 C 77 % 1015,1 hPa 0,0 l/m W-NW 0,00 h 0 W/m 1,6 km/h (1 Bft)
18.02.2016 19:00 3,8 C 81 % 1015,0 hPa 0,0 l/m N 0,00 h 0 W/m 0,0 km/h (0 Bft)
18.02.2016 20:00 2,2 C 84 % 1015,2 hPa 0,0 l/m N 0,00 h 0 W/m 0,0 km/h (0 Bft)
18.02.2016 21:00 1,0 C 87 % 1015,7 hPa 0,0 l/m N 0,00 h 0 W/m 0,0 km/h (0 Bft)
18.02.2016 22:00 0,1 C 89 % 1015,8 hPa 0,0 l/m N 0,00 h 0 W/m 0,0 km/h (0 Bft)
18.02.2016 23:00 -0,6 C 91 % 1015,7 hPa 0,0 l/m N 0,00 h 0 W/m 0,0 km/h (0 Bft)
19.02.2016 00:00 -1,0 C 92 % 1015,6 hPa 0,0 l/m N 0,00 h 0 W/m 0,0 km/h (0 Bft)
19.02.2016 01:00 -1,2 C 93 % 1015,9 hPa 0,0 l/m N 0,00 h 0 W/m 0,0 km/h (0 Bft)
19.02.2016 02:00 -1,3 C 94 % 1016,2 hPa 0,0 l/m N 0,00 h 0 W/m 0,0 km/h (0 Bft)
19.02.2016 03:00 -1,1 C 95 % 1016,3 hPa 0,0 l/m N 0,00 h 0 W/m 0,0 km/h (0 Bft)
19.02.2016 04:00 -0,8 C 96 % 1016,6 hPa 0,0 l/m N 0,00 h 0 W/m 0,0 km/h (0 Bft)
19.02.2016 05:00 -0,5 C 96 % 1017,1 hPa 0,2 l/m N 0,00 h 0 W/m 0,0 km/h (0 Bft)
19.02.2016 06:00 -0,2 C 96 % 1017,5 hPa 0,0 l/m W-NW 0,00 h 0 W/m 2,9 km/h (1 Bft)
19.02.2016 07:00 0,5 C 97 % 1018,2 hPa 0,0 l/m W-NW 0,00 h 8 W/m 5,2 km/h (1 Bft)
19.02.2016 08:00 0,9 C 97 % 1019,0 hPa 0,0 l/m W-NW 0,00 h 29 W/m 3,7 km/h (1 Bft)
19.02.2016 09:00 1,1 C 97 % 1019,5 hPa 0,0 l/m W-NW 0,00 h 31 W/m 7,5 km/h (2 Bft)
19.02.2016 10:00 1,4 C 95 % 1020,3 hPa 0,0 l/m W 0,00 h 64 W/m 9,8 km/h (2 Bft)
19.02.2016 11:00 1,9 C 94 % 1020,7 hPa 0,0 l/m W-SW 0,00 h 80 W/m 12,0 km/h (2 Bft)
19.02.2016 12:00 2,0 C 92 % 1021,1 hPa 0,0 l/m W-SW 0,00 h 52 W/m 16,6 km/h (3 Bft)
19.02.2016 13:00 2,2 C 91 % 1021,3 hPa 0,0 l/m W-SW 0,00 h 54 W/m 17,8 km/h (3 Bft)
19.02.2016 14:00 2,4 C 89 % 1021,5 hPa 0,0 l/m SW 0,00 h 62 W/m 17,2 km/h (3 Bft)
19.02.2016 15:00 2,7 C 82 % 1022,1 hPa 0,0 l/m W 0,00 h 45 W/m 18,5 km/h (3 Bft)
19.02.2016 16:00 2,7 C 78 % 1022,6 hPa 0,0 l/m W 0,08 h 41 W/m 17,0 km/h (3 Bft)
19.02.2016 17:00 2,3 C 82 % 1023,2 hPa 0,0 l/m W 0,00 h 6 W/m 13,0 km/h (3 Bft)
19.02.2016 18:00 1,2 C 88 % 1023,9 hPa 0,0 l/m W-NW 0,00 h 0 W/m 9,0 km/h (2 Bft)
19.02.2016 19:00 0,9 C 89 % 1024,4 hPa 0,0 l/m W-SW 0,00 h 0 W/m 8,0 km/h (2 Bft)
19.02.2016 20:00 0,8 C 88 % 1024,5 hPa 0,0 l/m W-SW 0,00 h 0 W/m 10,5 km/h (2 Bft)
19.02.2016 21:00 0,7 C 90 % 1024,9 hPa 0,0 l/m W-SW 0,00 h 0 W/m 12,8 km/h (3 Bft)
19.02.2016 22:00 0,6 C 90 % 1025,0 hPa 0,0 l/m W-SW 0,00 h 0 W/m 11,0 km/h (2 Bft)
19.02.2016 23:00 0,2 C 90 % 1024,6 hPa 0,0 l/m SW 0,00 h 0 W/m 10,2 km/h (2 Bft)
20.02.2016 00:00 -0,1 C 91 % 1024,4 hPa 0,0 l/m SW 0,00 h 0 W/m 8,0 km/h (2 Bft)
20.02.2016 01:00 -0,2 C 91 % 1024,7 hPa 0,0 l/m SW 0,00 h 0 W/m 7,3 km/h (2 Bft)
20.02.2016 02:00 -0,2 C 91 % 1024,9 hPa 0,0 l/m SW 0,00 h 0 W/m 10,3 km/h (2 Bft)
20.02.2016 03:00 -0,5 C 89 % 1024,4 hPa 0,0 l/m SW 0,00 h 0 W/m 9,1 km/h (2 Bft)
20.02.2016 04:00 -0,8 C 89 % 1024,3 hPa 0,0 l/m SW 0,00 h 0 W/m 10,3 km/h (2 Bft)
20.02.2016 05:00 -1,2 C 89 % 1024,6 hPa 0,0 l/m SW 0,00 h 0 W/m 12,0 km/h (2 Bft)
20.02.2016 06:00 -1,6 C 91 % 1024,4 hPa 0,0 l/m SW 0,00 h 0 W/m 12,9 km/h (3 Bft)
20.02.2016 07:00 -0,7 C 87 % 1024,1 hPa 0,0 l/m SW 0,00 h 11 W/m 16,1 km/h (3 Bft)
20.02.2016 08:00 0,4 C 79 % 1024,0 hPa 0,0 l/m SW 0,00 h 35 W/m 17,8 km/h (3 Bft)
20.02.2016 09:00 1,1 C 78 % 1024,0 hPa 0,0 l/m W-SW 0,00 h 55 W/m 32,6 km/h (5 Bft)
20.02.2016 10:00 0,1 C 92 % 1023,5 hPa 0,0 l/m SW 0,00 h 52 W/m 30,3 km/h (5 Bft)
20.02.2016 11:00 0,1 C 95 % 1023,1 hPa 0,4 l/m SW 0,00 h 71 W/m 26,1 km/h (4 Bft)
20.02.2016 12:00 0,6 C 95 % 1022,2 hPa 0,0 l/m W-SW 0,00 h 81 W/m 29,9 km/h (5 Bft)
20.02.2016 13:00 1,2 C 94 % 1021,4 hPa 0,0 l/m W-SW 0,00 h 65 W/m 29,0 km/h (5 Bft)
20.02.2016 14:00 1,3 C 94 % 1020,9 hPa 0,4 l/m W-SW 0,00 h 43 W/m 31,7 km/h (5 Bft)
20.02.2016 15:00 1,7 C 95 % 1020,4 hPa 0,0 l/m SW 0,00 h 38 W/m 38,4 km/h (5 Bft)
20.02.2016 16:00 2,1 C 94 % 1020,5 hPa 0,2 l/m W-SW 0,00 h 18 W/m 37,6 km/h (5 Bft)
20.02.2016 17:00 2,4 C 95 % 1020,3 hPa 0,0 l/m W-SW 0,00 h 9 W/m 30,2 km/h (5 Bft)
20.02.2016 18:00 2,9 C 95 % 1020,5 hPa 0,0 l/m W-SW 0,00 h 0 W/m 23,3 km/h (4 Bft)
20.02.2016 19:00 3,8 C 96 % 1020,3 hPa 0,0 l/m W-SW 0,00 h 0 W/m 29,5 km/h (5 Bft)
20.02.2016 20:00 4,7 C 95 % 1020,2 hPa 0,0 l/m W-SW 0,00 h 0 W/m 38,3 km/h (5 Bft)
20.02.2016 21:00 5,4 C 94 % 1019,7 hPa 0,0 l/m W 0,00 h 0 W/m 38,3 km/h (5 Bft)
20.02.2016 22:00 6,1 C 93 % 1019,5 hPa 0,0 l/m W-SW 0,00 h 0 W/m 39,4 km/h (6 Bft)
20.02.2016 23:00 6,5 C 92 % 1019,1 hPa 0,0 l/m W-SW 0,00 h 0 W/m 40,2 km/h (6 Bft)
21.02.2016 00:00 6,9 C 92 % 1019,0 hPa 0,0 l/m W-SW 0,00 h 0 W/m 40,8 km/h (6 Bft)
21.02.2016 01:00 7,4 C 92 % 1019,1 hPa 0,0 l/m W-SW 0,00 h 0 W/m 40,8 km/h (6 Bft)
21.02.2016 02:00 8,0 C 91 % 1019,2 hPa 0,0 l/m W-SW 0,00 h 0 W/m 44,3 km/h (6 Bft)
21.02.2016 03:00 8,7 C 91 % 1019,3 hPa 0,0 l/m SW 0,00 h 0 W/m 39,4 km/h (6 Bft)
21.02.2016 04:00 9,3 C 88 % 1019,4 hPa 0,0 l/m W 0,00 h 0 W/m 40,0 km/h (6 Bft)
21.02.2016 05:00 9,7 C 85 % 1019,1 hPa 0,0 l/m W-SW 0,00 h 0 W/m 39,8 km/h (6 Bft)
21.02.2016 06:00 10,0 C 83 % 1019,3 hPa 0,0 l/m W-SW 0,00 h 0 W/m 38,2 km/h (5 Bft)
21.02.2016 07:00 10,0 C 82 % 1019,7 hPa 0,0 l/m W 0,00 h 7 W/m 38,7 km/h (5 Bft)
21.02.2016 08:00 10,2 C 82 % 1020,2 hPa 0,0 l/m W 0,00 h 22 W/m 38,4 km/h (5 Bft)
21.02.2016 09:00 10,3 C 83 % 1020,5 hPa 0,0 l/m W-SW 0,00 h 48 W/m 34,3 km/h (5 Bft)
21.02.2016 10:00 10,9 C 82 % 1020,4 hPa 0,0 l/m W 0,58 h 281 W/m 38,7 km/h (5 Bft)
21.02.2016 11:00 11,4 C 81 % 1020,5 hPa 0,0 l/m W-SW 0,00 h 141 W/m 40,5 km/h (6 Bft)
21.02.2016 12:00 11,4 C 80 % 1020,2 hPa 0,0 l/m W 0,00 h 141 W/m 33,1 km/h (5 Bft)
21.02.2016 13:00 12,0 C 78 % 1019,2 hPa 0,0 l/m W-SW 0,08 h 203 W/m 28,3 km/h (4 Bft)
21.02.2016 14:00 12,3 C 78 % 1018,6 hPa 0,0 l/m W-SW 0,00 h 152 W/m 26,8 km/h (4 Bft)
21.02.2016 15:00 13,4 C 74 % 1018,4 hPa 0,0 l/m W-SW 0,83 h 295 W/m 31,9 km/h (5 Bft)
21.02.2016 16:00 12,9 C 74 % 1017,7 hPa 0,0 l/m W-SW 0,50 h 123 W/m 23,6 km/h (4 Bft)
21.02.2016 17:00 11,8 C 76 % 1017,3 hPa 0,0 l/m W-SW 0,08 h 20 W/m 22,1 km/h (4 Bft)
21.02.2016 18:00 11,0 C 79 % 1016,8 hPa 0,0 l/m W-SW 0,00 h 0 W/m 19,4 km/h (3 Bft)
21.02.2016 19:00 10,3 C 81 % 1016,5 hPa 0,0 l/m W-SW 0,00 h 0 W/m 18,5 km/h (3 Bft)
21.02.2016 20:00 9,5 C 82 % 1016,0 hPa 0,0 l/m W-SW 0,00 h 0 W/m 9,8 km/h (2 Bft)
21.02.2016 21:00 9,4 C 83 % 1015,2 hPa 0,0 l/m W-SW 0,00 h 0 W/m 18,0 km/h (3 Bft)
21.02.2016 22:00 9,6 C 83 % 1015,0 hPa 0,0 l/m W-SW 0,00 h 0 W/m 21,8 km/h (4 Bft)
21.02.2016 23:00 9,2 C 82 % 1015,0 hPa 0,0 l/m W-SW 0,00 h 0 W/m 18,8 km/h (3 Bft)
Min-Datum _ 20.02.16 18.02.16 15.02.16 - - - - 15.02.16
_ Min-Zeit 06:10 14:15 00:05 - - - - 02:10
Minimum _ -1,7 C 66 % 998,0 hPa - - - - 0,0 km/h (0 Bft)
Max-Datum _ 21.02.16 16.02.16 16.02.16 15.02.16 - 15.02.16 21.02.16 21.02.16
_ Max-Zeit 15:35 20:50 10:40 14:15 - 08:50 13:15 03:50
Maximum _ 13,6 C 100 % 1030,0 hPa 0,6 l/m - 0,08 h 701 W/m 54,7 km/h
W (7 Bft)
Durchschnitt _ 2,6 C 90 % 1018,9 hPa #1,8 l/m W-SW #7:25 h 80 W/m 13,8 km/h (3 Bft)